Location: Beetenbrück
(52.8113°N, 9.5946°E)
Time: 22:41:42
(UTC+00:00)

USA 234 - Pass Details

Date: 14 April 2026
Orbit: 1102 x 1106 km, 123.0° (Epoch: 4 January)

Event Time Altitude Azimuth Distance (km) Brightness Sun altitude
Rises 22:25:23 0° 82° (E) 3,922 6.1 -26.4°
Reaches altitude 10° 22:27:53 10° 80° (E) 2,965 5.5 -26.5°
Maximum altitude 22:34:19 63° 2° (N) 1,227 3.6 -26.7°
Drops below altitude 10° 22:40:46 10° 283° (WNW) 2,968 5.8 -26.9°
Sets 22:43:16 0° 280° (W) 3,926 6.4 -27.0°
